Lexington Weather

Lexington, Massachusetts, USA

43°F
9/19/2020 7:29am 
  • Lexington Conditions: Clear
  • Temperature: 43.0°F / 6.1°CColder 0.3°F than last hour.
  • Dew Point: 35.2°FDecreased 1.1°Fsince last hour.
  • Relative Humidity: 74%Decreased 2.0% since last hour.
  • Wind: Wind from NNE NNE 1 mph, 10-min avg: 1 mph, gust: 2 mph
  • Barometer: 30.23 inRising 0.03  inHg/hr Rising Slowly
  • Visibility: 10 miles
  • Rain Today: 0.00 in
  •   
Southeast Middlesex County - Special Weather Statement
 - SEE ALL NEARBY ALERTS -

Regional Weather Roundup
for Boston / Norton, MA

        
000
ASUS41 KBOX 170304
RWRBOX

REGIONAL WEATHER ROUNDUP
NATIONAL WEATHER SERVICE BOSTON/NORTON MA
1100 PM EDT WED SEP 16 2020

NOTE:  "FAIR" INDICATES FEW OR NO CLOUDS BELOW 12,000 FEET WITH NO 
SIGNIFICANT WEATHER AND/OR OBSTRUCTIONS TO VISIBILITY.

MAZALL-170400-
EASTERN MASSACHUSETTS
  
CITY           SKY/WX    TMP DP  RH WIND       PRES   REMARKS
BOSTON         PTCLDY    63  55  75 SW13      30.09S                  
BEVERLY        CLEAR     64  55  72 SW13      30.09R                  
LAWRENCE       CLEAR     62  54  74 SW10      30.10S                  
BEDFORD        CLEAR     61  54  77 SW6       30.08R                  
BLUE HILL        N/A     61  55  81 S22G30    30.09F                  
NORWOOD        CLEAR     64  55  72 S8G18     30.10S                  
MARSHFIELD     MOCLDY    64  59  82 SW7G16    30.10F                  
PLYMOUTH       CLEAR     62  58  86 SW10      30.12F                  
TAUNTON        CLEAR     65  57  75 SW6       30.11F                  
NEW BEDFORD    CLEAR     61  58  90 SW5       30.13S                  
$$

MAZALL-170400-
CAPE COD AND THE ISLANDS
  
CITY           SKY/WX    TMP DP  RH WIND       PRES   REMARKS
FALMOUTH       PTCLDY    64  59  82 SW14      30.14S                  
HYANNIS        CLEAR     67  59  75 SW15      30.13S                  
CHATHAM        CLEAR     67  61  81 SW10G18   30.15S                  
PROVINCETOWN   CLEAR     64  59  83 SW14      30.13S                  
NANTUCKET      MOCLDY    66  62  87 S8        30.16S                  
MARTHAS VNYRD  CLEAR     66  61  84 SW9       30.14F                  
$$
 
MAZALL-170400-
CENTRAL AND WESTERN MASSACHUSETTS
  
CITY           SKY/WX    TMP DP  RH WIND       PRES   REMARKS
WORCESTER      CLEAR     59  53  80 SW18      30.11R                  
FITCHBURG      CLEAR     62  53  72 VRB7      30.09S                  
ORANGE         CLEAR     62  54  74 S12       30.10S                  
SPRINGFIELD    MOCLDY    60  54  81 SW6       30.10R                  
WESTFIELD      CLEAR     58  54  86 S6        30.11R                  
NORTH ADAMS    CLEAR     56  50  80 CALM      30.09R                  
PITTSFIELD     CLEAR     58  52  80 S8        30.09F                  
$$
 
RIZALL-170400-
RHODE ISLAND
  
CITY           SKY/WX    TMP DP  RH WIND       PRES   REMARKS
PROVIDENCE     PTCLDY    59  56  89 SW7       30.13F                  
NEWPORT        CLEAR     67  59  75 S7        30.13F                  
BLOCK ISLAND   MOCLDY    66  61  84 SW9       30.14F                  
SMITHFIELD     CLEAR     60  58  92 VRB6      30.12F                  
WESTERLY       MOCLDY    67  59  75 S8        30.14F                  
$$
 
CTZALL-170400-
CONNECTICUT
  
CITY           SKY/WX    TMP DP  RH WIND       PRES   REMARKS
BRADLEY INTL   MOCLDY    60  54  80 S8        30.11R                  
HARTFORD       CLEAR     59  54  83 S5        30.11F                  
BRIDGEPORT     CLEAR     69  57  65 SW15      30.12S                  
DANBURY        CLEAR     61  56  83 S7        30.14S                  
GROTON         MOCLDY    67  61  81 SW14      30.13S                  
NEW HAVEN      PTCLDY    70  59  68 SW10      30.13S                  
CHESTER        NOT AVBL                                               
MERIDEN        CLEAR     55  53  93 CALM      30.12S                  
WILLIMANTIC    CLEAR     54  52  93 CALM      30.13F                  
OXFORD         CLEAR     59  56  89 SW3       30.14F                  
$$

MEZ002-015-021-024-NHZ003-005-008-011-012-014-VTZ005-008-170400-
NORTHERN NEW ENGLAND
  
CITY           SKY/WX    TMP DP  RH WIND       PRES   REMARKS
PORTLAND ME    CLEAR     63  54  72 VRB7      30.03S                  
BANGOR ME      PTCLDY    62  53  72 S10       29.96S                  
CONCORD NH     CLEAR     61  52  72 S8        30.06S                  
MANCHESTER NH  PTCLDY    63  53  70 S9        30.05F                  
NASHUA NH      CLEAR     62  57  83 VRB5      30.08S                  
PORTSMOUTH NH  PTCLDY    62  52  70 S9        30.05S                  
JAFFREY NH     CLEAR     60  52  74 SW10G20   30.08S                  
KEENE NH       CLEAR     57  53  86 S9        30.09R                  
BURLINGTON VT  CLEAR     64  48  56 S18G28    29.95F                  
MT. WASHINGTON MOCLDY    48  10  21 W54G70      N/A                   
$$

NYZ052-076-170400-
EASTERN NEW YORK
  
CITY           SKY/WX    TMP DP  RH WIND       PRES   REMARKS
ALBANY         MOCLDY    57  51  80 S8        30.06F                  
NEW YORK CITY  MOCLDY    69  55  60 SW10      30.12S                  
$$
 
ANZALL-170400-
MARINE OBSERVATIONS
  
STATION/POSITION TIME  TEMP    WIND        PRES    VSBY  WAVE
                       AIR SEA DIR/SP/G                  HT/PER
                 (UTC) (F)     (DEG/KT/KT) (MB)    (MI)  (FT/S)
BOSTON BUOY      0250   64 64  190/ 16/ 19 1017.9R         3/ 9
BUZZARDS BAY     0200          230/ 14/ 16 1021.8F
NANTUCKET SOUND  0240      70  220/ 14/ 16   N/A
MASS BAY-STELLWA 0204   64     230/ 19/ 23 1016.5F  1 7/8  3/ 4
ISLE OF SHOALS   0200   64     220/ 20/ 22 1018.1R
S OF BLOCK IS    0226      70                N/A           4/10
$$

......................KEY.........................
  SKY/WX - SKY CONDITION/PRESENT WEATHER
  TMP    - TEMPERATURE IN FAHRENHEIT
  DWPT   - DEWPOINT IN FAHRENHEIT
  RH     - RELATIVE HUMIDITY IN PERCENT
  WIND   - DIRECTION AND SPEED IN MPH
  PRES   - MEAN SEA LEVEL PRESSURE IN INCHES OF HG
  WCI    - WIND CHILL INDEX
  VSB    - VISIBILITY IN MILES
  HX     - HEAT INDEX
  TC     - TEMPERATURE IN CELSIUS
  VRB    - VARIABLE WIND DIRECTION
  N/A    - NOT AVAILABLE
  
      

Other recent Regional Weather Roundups

Sat Sep 19, 7:04am

Sat Sep 19, 6:04am

Sat Sep 19, 5:04am

Sat Sep 19, 4:04am

Sat Sep 19, 3:04am

Sat Sep 19, 2:04am

Sat Sep 19, 1:04am

Sat Sep 19, 12:04am

Fri Sep 18, 11:05pm

Fri Sep 18, 10:04pm

Fri Sep 18, 9:04pm

Fri Sep 18, 8:04pm

Fri Sep 18, 7:04pm

Fri Sep 18, 6:04pm

Fri Sep 18, 5:05pm

Fri Sep 18, 4:04pm

Fri Sep 18, 3:05pm

Fri Sep 18, 2:04pm

Fri Sep 18, 1:04pm

Fri Sep 18, 12:04pm

Fri Sep 18, 11:05am

Fri Sep 18, 10:05am

Fri Sep 18, 9:04am

Fri Sep 18, 8:04am

Fri Sep 18, 7:04am

Fri Sep 18, 6:04am

Fri Sep 18, 5:04am

Fri Sep 18, 4:04am

Fri Sep 18, 3:04am

Fri Sep 18, 2:04am

Fri Sep 18, 1:04am

Fri Sep 18, 12:04am

Thu Sep 17, 11:05pm

Thu Sep 17, 10:04pm

Thu Sep 17, 9:04pm

Thu Sep 17, 8:05pm

Thu Sep 17, 7:04pm

Thu Sep 17, 6:04pm

Thu Sep 17, 5:04pm

Thu Sep 17, 4:04pm

Thu Sep 17, 3:05pm

Thu Sep 17, 2:04pm

Thu Sep 17, 1:04pm

Thu Sep 17, 12:04pm

Thu Sep 17, 11:04am

Thu Sep 17, 10:04am

Thu Sep 17, 9:04am

Thu Sep 17, 8:04am

Thu Sep 17, 7:04am

Thu Sep 17, 6:04am

Thu Sep 17, 5:04am

Thu Sep 17, 4:04am

Thu Sep 17, 3:04am

Thu Sep 17, 2:05am

Thu Sep 17, 1:05am

Thu Sep 17, 12:04am

Wed Sep 16, 10:04pm

Wed Sep 16, 9:04pm

Wed Sep 16, 8:05pm

Wed Sep 16, 7:04pm

Wed Sep 16, 6:04pm

Wed Sep 16, 5:04pm

Wed Sep 16, 4:04pm

Wed Sep 16, 3:04pm

Wed Sep 16, 2:04pm

Wed Sep 16, 1:04pm

Wed Sep 16, 12:04pm

Wed Sep 16, 11:04am

Wed Sep 16, 10:04am

Wed Sep 16, 9:04am

Wed Sep 16, 8:04am

Wed Sep 16, 7:04am

Wed Sep 16, 6:04am

Wed Sep 16, 5:04am

Wed Sep 16, 4:04am

Wed Sep 16, 3:04am

Wed Sep 16, 2:04am

Wed Sep 16, 1:04am

Wed Sep 16, 12:05am

Tue Sep 15, 11:04pm

Tue Sep 15, 10:04pm

Tue Sep 15, 9:04pm

Tue Sep 15, 8:04pm

Tue Sep 15, 7:04pm

Tue Sep 15, 6:04pm

Tue Sep 15, 5:04pm

Tue Sep 15, 4:05pm

Tue Sep 15, 3:04pm

Tue Sep 15, 2:04pm

Tue Sep 15, 1:04pm

Tue Sep 15, 12:04pm

Tue Sep 15, 11:04am

Tue Sep 15, 10:04am

Tue Sep 15, 9:04am

Tue Sep 15, 8:04am

Tue Sep 15, 7:04am

Tue Sep 15, 6:04am

Tue Sep 15, 5:04am

Tue Sep 15, 4:04am

Tue Sep 15, 3:04am

Tue Sep 15, 2:04am

Tue Sep 15, 1:04am

Tue Sep 15, 12:05am

Mon Sep 14, 11:04pm

Mon Sep 14, 10:04pm

Mon Sep 14, 9:04pm

Mon Sep 14, 8:04pm

Mon Sep 14, 7:04pm

Mon Sep 14, 6:04pm

Mon Sep 14, 5:04pm

Mon Sep 14, 4:05pm

Mon Sep 14, 3:04pm

Mon Sep 14, 2:05pm

Mon Sep 14, 1:04pm

Mon Sep 14, 12:04pm

Mon Sep 14, 11:04am

Mon Sep 14, 10:05am

Mon Sep 14, 9:04am

Mon Sep 14, 8:04am

Mon Sep 14, 7:04am

Mon Sep 14, 6:04am

Mon Sep 14, 5:04am

Mon Sep 14, 4:04am

Mon Sep 14, 3:04am

Mon Sep 14, 2:04am

Mon Sep 14, 1:04am

Mon Sep 14, 12:04am

Sun Sep 13, 11:05pm

Sun Sep 13, 10:04pm

Sun Sep 13, 9:04pm

Sun Sep 13, 8:04pm

Sun Sep 13, 7:05pm

Sun Sep 13, 6:05pm

Sun Sep 13, 5:05pm

Sun Sep 13, 4:04pm

Sun Sep 13, 3:04pm

Sun Sep 13, 2:04pm

Sun Sep 13, 1:04pm

Sun Sep 13, 12:04pm

Sun Sep 13, 11:05am

Sun Sep 13, 10:04am

Sun Sep 13, 9:04am

Sun Sep 13, 8:04am

Sun Sep 13, 7:04am

Sun Sep 13, 6:04am

Sun Sep 13, 5:04am

Sun Sep 13, 4:04am

Sun Sep 13, 3:04am

Sun Sep 13, 2:04am

Sun Sep 13, 1:04am

Sun Sep 13, 12:04am

Sat Sep 12, 11:04pm

Sat Sep 12, 10:04pm

Sat Sep 12, 9:04pm

Sat Sep 12, 8:04pm

Sat Sep 12, 7:05pm

Sat Sep 12, 6:04pm

Sat Sep 12, 5:04pm

Sat Sep 12, 4:05pm

Sat Sep 12, 3:04pm

Sat Sep 12, 2:04pm

Sat Sep 12, 1:05pm

Sat Sep 12, 12:04pm

Sat Sep 12, 11:04am

Sat Sep 12, 10:04am

Sat Sep 12, 9:04am

Sat Sep 12, 8:04am

Meta data:

ID: a77a777d-6526-4e85-86b5-5b21c6a6c08b
Link: https://api.weather.gov/products/a77a777d-6526-4e85-86b5-5b21c6a6c08b